[Iaude] MPEC S83: 2016 SQ3 [a=1.20,e=0.26,i=19.1,H=25.2]

mpec at si.edu mpec at si.edu
Thu Sep 29 15:19:33 EDT 2016


M.P.E.C. 2016-S83                                Issued 2016 Sept. 28, 15:57 UT
 
     The Minor Planet Electronic Circulars contain information on unusual
         minor planets and routine data on comets.  They are published
    on behalf of Division F of the International Astronomical Union by the
          Minor Planet Center, Smithsonian Astrophysical Observatory,
                          Cambridge, MA 02138, U.S.A.

             Prepared using the Tamkin Foundation Computer Network

                              MPC at CFA.HARVARD.EDU
            URL http://www.minorplanetcenter.net/    ISSN 1523-6714


                                   2016 SQ3
 
Observations:
     K16S03Q* C2016 09 25.39402 23 27 10.622-23 37 46.34         20.6 wLES083F51
     K16S03Q  C2016 09 25.40498 23 27 12.135-23 41 49.76         20.8 wLES083F51
     K16S03Q  C2016 09 25.41594 23 27 13.634-23 45 52.51         20.4 wLES083F51
     K16S03Q _C2016 09 26.33931223 30 34.824-29 30 49.38         20.4 GUES083568
     K16S03Q _C2016 09 26.34035923 30 34.982-29 31 12.98         20.4 GUES083568
     K16S03Q |C2016 09 28.13047 23 38 22.46 -40 43 52.0          20.7 VuES083807
     K16S03Q |C2016 09 28.13416 23 38 23.33 -40 45 14.6          20.8 VuES083807
     K16S03Q |C2016 09 28.13770 23 38 24.13 -40 46 33.5          20.5 VuES083807
 
Observer details:
568 Mauna Kea.  Observers R. J. Wainscoat, P. Forshay.  Measurers M. Micheli,
    R. J. Wainscoat.  3.6-m Canada-France-Hawaii Telescope + CCD.
807 Cerro Tololo.  Observers T. Linder, R. Holmes.  0.61-m f/6.5 astrograph
    + CCD.
F51 Pan-STARRS 1, Haleakala.  Observers B. Gibson, T. Goggia, S. Kahale,
    A. Schultz, M. Willman.  Measurers K. Chambers, S. Chastel, L. Denneau,
    H. Flewelling, M. Huber, E. Lilly, E. Magnier, R. Wainscoat, C. Waters,
    R. Weryk.  1.8-m Ritchey-Chretien + CCD.
 
Orbital elements:
2016 SQ3                                                 Earth MOID = 0.0548 AU
Epoch 2016 July 31.0 TT = JDT 2457600.5                 MPC
M 268.65947              (2000.0)            P               Q
n   0.74765540     Peri.  259.72368     +0.20334524     -0.97906760
a   1.2022692      Node   178.45853     +0.97640488     +0.20210896
e   0.2594916      Incl.   19.08326     +0.07269267     +0.02405427
P   1.32           H   25.2           G   0.15           U   8
Residuals in seconds of arc
160925 F51  0.2-  0.9+    160926 568  0.3+  0.0     160928 807  0.1+  0.1-
160925 F51  0.1+  0.2-    160926 568  0.1+  0.2+    160928 807  0.2-  0.0
160925 F51  0.1+  0.8-    160928 807  0.0   0.0

Ephemeris:
2016 SQ3                 a,e,i = 1.20, 0.26, 19                  q = 0.8903
Date    TT    R. A. (2000) Decl.     Delta      r     Elong.  Phase     V
2016 08 29    22 59 38.2 +34 45 49   0.2144  1.1721   135.3    37.3    23.7
...
2016 09 13    23 06 24.6 +22 24 57   0.1139  1.1091   153.4    24.0    21.8
...
2016 09 21    23 16 12.6 -00 12 22   0.07255 1.0756   170.7     8.7    20.3
...
2016 09 27    23 33 08.9 -33 38 36   0.05978 1.0509   143.4    34.7    20.6
2016 09 28    23 37 41.2 -39 54 42   0.06012 1.0468   137.0    40.7    20.8
2016 09 29    23 43 01.8 -45 59 55   0.06119 1.0428   130.8    46.6    21.0
...
2016 10 05    00 51 18.9 -73 41 07   0.07954 1.0190   101.6    74.0    22.3
...
2016 10 13    07 12 18.8 -81 57 11   0.1193  0.9889    82.3    90.8    23.8
...
2016 10 28    09 57 02.8 -70 35 10   0.2012  0.9401    68.9    99.6    25.2

A. U. Tomatic                (C) Copyright 2016 MPC           M.P.E.C. 2016-S83




More information about the Iaude mailing list